Zurück zum Katalog

SL-16 DEB

AktivPO
NORAD 28437·DEBRIS·🇷🇺 Russia

Gestartet Dec 10, 2001 von Baikonur Cosmodrome

Loading…

Nächste Überflüge (nächste 24 Stunden)

TLE

AktuellSource: Space-Track

Epoche: Sep 14, 2026, 14:09 UTC

1 28437U 01056L   26257.59009644  .00000116  00000-0  30859-3 0  9991
2 28437  99.4655 160.6039 0201774 359.9654 116.8233 13.27649889199135

Verfolge SL-16 DEB in Echtzeit mit AllMySat

Download on the App Store